TimeMDT,TemperatureF,Dew PointF,Humidity,Sea Level PressureIn,VisibilityMPH,Wind Direction,Wind SpeedMPH,Gust SpeedMPH,PrecipitationIn,Events,Conditions,WindDirDegrees,DateUTC
12:56 AM,23.0,18.0,81,30.23,10.0,East,3.5,-,N/A,,Scattered Clouds,90,2013-04-02 06:56:00
1:56 AM,21.0,16.0,81,30.23,10.0,South,3.5,-,N/A,,Clear,190,2013-04-02 07:56:00
2:56 AM,21.0,16.0,81,30.21,10.0,Calm,Calm,-,N/A,,Clear,0,2013-04-02 08:56:00
3:56 AM,23.0,16.0,74,30.20,10.0,Calm,Calm,-,N/A,,Clear,0,2013-04-02 09:56:00
4:56 AM,19.0,15.1,85,30.21,10.0,Calm,Calm,-,N/A,,Clear,0,2013-04-02 10:56:00
5:56 AM,19.9,16.0,85,30.22,10.0,ENE,4.6,-,N/A,,Clear,60,2013-04-02 11:56:00
6:56 AM,19.0,15.1,85,30.24,10.0,ENE,8.1,-,N/A,,Clear,70,2013-04-02 12:56:00
7:56 AM,24.1,19.9,84,30.25,10.0,ENE,8.1,-,N/A,,Clear,70,2013-04-02 13:56:00
8:56 AM,28.9,23.0,78,30.26,10.0,East,9.2,-,N/A,,Clear,80,2013-04-02 14:56:00
9:56 AM,34.0,21.0,59,30.25,10.0,ESE,12.7,-,N/A,,Clear,110,2013-04-02 15:56:00
10:56 AM,37.9,21.0,51,30.26,10.0,East,11.5,-,N/A,,Clear,100,2013-04-02 16:56:00
11:56 AM,41.0,21.9,47,30.25,10.0,ESE,6.9,-,N/A,,Clear,110,2013-04-02 17:56:00
12:56 PM,44.1,23.0,43,30.22,10.0,SE,6.9,-,N/A,,Clear,130,2013-04-02 18:56:00
1:56 PM,46.9,23.0,39,30.21,10.0,SSE,6.9,-,N/A,,Clear,150,2013-04-02 19:56:00
2:56 PM,48.0,21.9,36,30.17,10.0,SE,8.1,16.1,N/A,,Clear,140,2013-04-02 20:56:00
3:56 PM,51.1,23.0,33,30.14,10.0,SSE,11.5,18.4,N/A,,Clear,150,2013-04-02 21:56:00
4:56 PM,51.1,21.9,32,30.14,10.0,SSE,8.1,-,N/A,,Clear,150,2013-04-02 22:56:00
5:56 PM,51.1,21.9,32,30.12,10.0,SSE,13.8,-,N/A,,Clear,150,2013-04-02 23:56:00
6:56 PM,46.0,24.1,42,30.12,10.0,ESE,9.2,-,N/A,,Clear,120,2013-04-03 00:56:00
7:56 PM,39.9,25.0,55,30.11,10.0,ESE,11.5,-,N/A,,Clear,120,2013-04-03 01:56:00
8:56 PM,37.0,25.0,62,30.11,10.0,SE,13.8,-,N/A,,Clear,130,2013-04-03 02:56:00
9:56 PM,36.0,24.1,62,30.10,10.0,SE,15.0,-,N/A,,Clear,140,2013-04-03 03:56:00
10:56 PM,34.0,25.0,70,30.08,10.0,SSE,16.1,-,N/A,,Clear,150,2013-04-03 04:56:00
11:56 PM,34.0,24.1,67,30.05,10.0,South,23.0,28.8,N/A,,Clear,170,2013-04-03 05:56:00